Time,TemperatureF,DewpointF,PressureIn,WindDirection,WindDirectionDegrees,WindSpeedMPH,WindSpeedGustMPH,Humidity,HourlyPrecipIn,Conditions,Clouds,dailyrainin,SoftwareType,DateUTC
2013-12-28 00:09:00,38.8,35.0,30.31,South,191,4.0,7.0,86,0.00,,,0.00,weatherlink.com 1.10,2013-12-28 06:09:00,
2013-12-28 00:24:00,39.2,35.0,30.30,South,182,3.0,8.0,86,0.00,,,0.00,weatherlink.com 1.10,2013-12-28 06:24:00,
2013-12-28 00:39:00,39.0,35.0,30.30,South,184,3.0,7.0,86,0.00,,,0.00,weatherlink.com 1.10,2013-12-28 06:39:00,
2013-12-28 00:54:00,39.1,35.0,30.30,South,184,5.0,9.0,86,0.00,,,0.00,weatherlink.com 1.10,2013-12-28 06:54:00,
2013-12-28 01:09:00,39.3,36.0,30.29,SSW,193,2.0,8.0,86,0.00,,,0.00,weatherlink.com 1.10,2013-12-28 07:09:00,
2013-12-28 01:24:00,39.5,35.0,30.30,SSW,192,4.0,9.0,85,0.00,,,0.00,weatherlink.com 1.10,2013-12-28 07:24:00,
2013-12-28 01:39:00,39.6,35.0,30.30,SW,219,4.0,7.0,84,0.00,,,0.00,weatherlink.com 1.10,2013-12-28 07:39:00,
2013-12-28 01:54:00,39.7,35.0,30.29,South,182,4.0,7.0,84,0.00,,,0.00,weatherlink.com 1.10,2013-12-28 07:54:00,
2013-12-28 02:09:00,39.7,35.0,30.30,South,182,2.0,6.0,83,0.00,,,0.00,weatherlink.com 1.10,2013-12-28 08:09:00,
2013-12-28 02:24:00,39.9,35.0,30.30,South,187,1.0,7.0,82,0.00,,,0.00,weatherlink.com 1.10,2013-12-28 08:24:00,
2013-12-28 02:39:00,40.0,35.0,30.29,South,187,1.0,5.0,81,0.00,,,0.00,weatherlink.com 1.10,2013-12-28 08:39:00,
2013-12-28 02:54:00,39.3,34.0,30.29,South,187,2.0,5.0,80,0.00,,,0.00,weatherlink.com 1.10,2013-12-28 08:54:00,
2013-12-28 03:10:00,37.2,33.0,30.29,South,187,1.0,3.0,83,0.00,,,0.00,weatherlink.com 1.10,2013-12-28 09:10:00,
2013-12-28 03:25:00,37.5,33.0,30.28,South,187,3.0,3.0,84,0.00,,,0.00,weatherlink.com 1.10,2013-12-28 09:25:00,
2013-12-28 03:40:00,37.3,33.0,30.27,South,187,1.0,2.0,84,0.00,,,0.00,weatherlink.com 1.10,2013-12-28 09:40:00,
2013-12-28 03:55:00,36.7,33.0,30.27,South,187,1.0,2.0,85,0.00,,,0.00,weatherlink.com 1.10,2013-12-28 09:55:00,
2013-12-28 04:10:00,36.5,32.0,30.26,South,187,0.0,2.0,85,0.00,,,0.00,weatherlink.com 1.10,2013-12-28 10:10:00,
2013-12-28 04:25:00,34.5,30.0,30.26,South,187,0.0,2.0,84,0.00,,,0.00,weatherlink.com 1.10,2013-12-28 10:25:00,
2013-12-28 04:40:00,32.4,29.0,30.26,South,187,0.0,1.0,87,0.00,,,0.00,weatherlink.com 1.10,2013-12-28 10:40:00,
2013-12-28 04:55:00,32.6,30.0,30.26,South,187,0.0,0.0,91,0.00,,,0.00,weatherlink.com 1.10,2013-12-28 10:55:00,
2013-12-28 05:10:00,34.2,32.0,30.26,South,187,0.0,2.0,91,0.00,,,0.00,weatherlink.com 1.10,2013-12-28 11:10:00,
2013-12-28 05:25:00,34.6,32.0,30.26,South,187,1.0,2.0,89,0.00,,,0.00,weatherlink.com 1.10,2013-12-28 11:25:00,
2013-12-28 05:40:00,34.2,31.0,30.26,South,187,0.0,1.0,88,0.00,,,0.00,weatherlink.com 1.10,2013-12-28 11:40:00,
2013-12-28 05:55:00,34.1,31.0,30.26,South,187,1.0,1.0,89,0.00,,,0.00,weatherlink.com 1.10,2013-12-28 11:55:00,
2013-12-28 06:10:00,33.4,30.0,30.26,South,187,0.0,0.0,88,0.00,,,0.00,weatherlink.com 1.10,2013-12-28 12:10:00,
2013-12-28 06:25:00,32.5,30.0,30.26,South,187,0.0,0.0,90,0.00,,,0.00,weatherlink.com 1.10,2013-12-28 12:25:00,
2013-12-28 06:40:00,32.6,30.0,30.26,South,187,1.0,2.0,90,0.00,,,0.00,weatherlink.com 1.10,2013-12-28 12:40:00,
2013-12-28 06:55:00,33.9,32.0,30.26,South,187,0.0,2.0,91,0.00,,,0.00,weatherlink.com 1.10,2013-12-28 12:55:00,
2013-12-28 07:10:00,33.4,31.0,30.26,South,187,0.0,1.0,90,0.00,,,0.00,weatherlink.com 1.10,2013-12-28 13:10:00,
2013-12-28 07:25:00,32.2,29.0,30.26,South,187,0.0,0.0,89,0.00,,,0.00,weatherlink.com 1.10,2013-12-28 13:25:00,
2013-12-28 07:40:00,32.9,31.0,30.26,South,187,0.0,0.0,91,0.00,,,0.00,weatherlink.com 1.10,2013-12-28 13:40:00,
2013-12-28 07:55:00,33.8,32.0,30.25,South,187,0.0,0.0,92,0.00,,,0.00,weatherlink.com 1.10,2013-12-28 13:55:00,
2013-12-28 08:10:00,35.1,33.0,30.25,South,187,0.0,2.0,92,0.00,,,0.00,weatherlink.com 1.10,2013-12-28 14:10:00,
2013-12-28 08:25:00,37.2,34.0,30.26,South,187,2.0,3.0,89,0.00,,,0.00,weatherlink.com 1.10,2013-12-28 14:25:00,
2013-12-28 08:40:00,38.8,35.0,30.26,South,187,3.0,4.0,87,0.00,,,0.00,weatherlink.com 1.10,2013-12-28 14:40:00,
2013-12-28 08:55:00,40.2,35.0,30.26,South,180,4.0,6.0,83,0.00,,,0.00,weatherlink.com 1.10,2013-12-28 14:55:00,
2013-12-28 09:10:00,41.1,36.0,30.26,South,178,1.0,6.0,82,0.00,,,0.00,weatherlink.com 1.10,2013-12-28 15:10:00,
2013-12-28 09:25:00,42.0,36.0,30.26,South,180,4.0,9.0,80,0.00,,,0.00,weatherlink.com 1.10,2013-12-28 15:25:00,
2013-12-28 09:40:00,43.1,37.0,30.26,South,182,4.0,9.0,78,0.00,,,0.00,weatherlink.com 1.10,2013-12-28 15:40:00,
2013-12-28 09:55:00,44.5,37.0,30.25,South,184,7.0,9.0,74,0.00,,,0.00,weatherlink.com 1.10,2013-12-28 15:55:00,
2013-12-28 10:10:00,45.7,37.0,30.25,SSW,202,3.0,9.0,72,0.00,,,0.00,weatherlink.com 1.10,2013-12-28 16:10:00,
2013-12-28 10:25:00,46.1,36.0,30.25,South,186,5.0,10.0,68,0.00,,,0.00,weatherlink.com 1.10,2013-12-28 16:25:00,
2013-12-28 10:40:00,46.2,37.0,30.25,South,184,4.0,7.0,71,0.00,,,0.00,weatherlink.com 1.10,2013-12-28 16:40:00,
2013-12-28 10:55:00,46.4,37.0,30.24,SSW,196,5.0,7.0,70,0.00,,,0.00,weatherlink.com 1.10,2013-12-28 16:55:00,
2013-12-28 11:10:00,47.2,38.0,30.23,South,190,3.0,9.0,70,0.00,,,0.00,weatherlink.com 1.10,2013-12-28 17:10:00,
2013-12-28 11:25:00,47.9,37.0,30.22,South,177,4.0,12.0,67,0.00,,,0.00,weatherlink.com 1.10,2013-12-28 17:25:00,
2013-12-28 11:41:00,48.4,38.0,30.21,South,179,6.0,9.0,67,0.00,,,0.00,weatherlink.com 1.10,2013-12-28 17:41:00,
2013-12-28 11:56:00,48.7,38.0,30.20,South,182,7.0,9.0,66,0.00,,,0.00,weatherlink.com 1.10,2013-12-28 17:56:00,
2013-12-28 12:11:00,49.0,38.0,30.19,South,186,6.0,9.0,65,0.00,,,0.00,weatherlink.com 1.10,2013-12-28 18:11:00,
2013-12-28 12:26:00,49.1,37.0,30.18,SSW,192,7.0,12.0,63,0.00,,,0.00,weatherlink.com 1.10,2013-12-28 18:26:00,
2013-12-28 12:41:00,49.7,37.0,30.18,SSW,198,6.0,8.0,62,0.00,,,0.00,weatherlink.com 1.10,2013-12-28 18:41:00,
2013-12-28 12:56:00,49.9,38.0,30.17,SSW,203,5.0,9.0,63,0.00,,,0.00,weatherlink.com 1.10,2013-12-28 18:56:00,
2013-12-28 13:11:00,50.1,38.0,30.17,South,184,7.0,11.0,63,0.00,,,0.00,weatherlink.com 1.10,2013-12-28 19:11:00,
2013-12-28 13:26:00,50.3,37.0,30.15,South,179,9.0,11.0,61,0.00,,,0.00,weatherlink.com 1.10,2013-12-28 19:26:00,
2013-12-28 13:41:00,49.9,36.0,30.14,South,178,4.0,10.0,60,0.00,,,0.00,weatherlink.com 1.10,2013-12-28 19:41:00,
2013-12-28 13:56:00,50.3,37.0,30.14,South,174,7.0,11.0,61,0.00,,,0.00,weatherlink.com 1.10,2013-12-28 19:56:00,
2013-12-28 14:11:00,50.1,37.0,30.13,South,191,5.0,12.0,60,0.00,,,0.00,weatherlink.com 1.10,2013-12-28 20:11:00,
2013-12-28 14:26:00,50.0,36.0,30.12,South,191,10.0,14.0,58,0.00,,,0.00,weatherlink.com 1.10,2013-12-28 20:26:00,
2013-12-28 14:41:00,49.7,35.0,30.12,South,186,4.0,9.0,57,0.00,,,0.00,weatherlink.com 1.10,2013-12-28 20:41:00,
2013-12-28 14:56:00,49.3,35.0,30.11,South,177,5.0,10.0,58,0.00,,,0.00,weatherlink.com 1.10,2013-12-28 20:56:00,
2013-12-28 15:11:00,49.1,35.0,30.11,South,169,5.0,9.0,58,0.00,,,0.00,weatherlink.com 1.10,2013-12-28 21:11:00,
2013-12-28 15:26:00,48.5,36.0,30.11,SSE,165,6.0,7.0,63,0.00,,,0.00,weatherlink.com 1.10,2013-12-28 21:26:00,
2013-12-28 15:41:00,47.8,36.0,30.11,SSE,164,4.0,9.0,63,0.00,,,0.00,weatherlink.com 1.10,2013-12-28 21:41:00,
2013-12-28 15:56:00,47.3,36.0,30.11,SSE,154,5.0,7.0,64,0.00,,,0.00,weatherlink.com 1.10,2013-12-28 21:56:00,
2013-12-28 16:11:00,46.7,36.0,30.10,SSE,157,2.0,9.0,66,0.00,,,0.00,weatherlink.com 1.10,2013-12-28 22:11:00,
2013-12-28 16:26:00,46.2,36.0,30.09,SSE,157,3.0,4.0,67,0.00,,,0.00,weatherlink.com 1.10,2013-12-28 22:26:00,
2013-12-28 16:56:00,45.2,36.0,30.09,SSE,157,4.0,5.0,69,0.00,,,0.00,weatherlink.com 1.10,2013-12-28 22:56:00,
2013-12-28 17:11:00,45.3,35.0,30.08,SSE,154,3.0,6.0,67,0.00,,,0.00,weatherlink.com 1.10,2013-12-28 23:11:00,
2013-12-28 17:26:00,45.0,35.0,30.08,SSE,154,1.0,3.0,67,0.00,,,0.00,weatherlink.com 1.10,2013-12-28 23:26:00,
2013-12-28 17:41:00,45.0,35.0,30.07,SSE,154,0.0,3.0,67,0.00,,,0.00,weatherlink.com 1.10,2013-12-28 23:41:00,
2013-12-28 17:56:00,44.9,34.0,30.07,SSE,154,0.0,3.0,66,0.00,,,0.00,weatherlink.com 1.10,2013-12-28 23:56:00,
2013-12-28 18:11:00,44.2,34.0,30.07,SSE,154,0.0,1.0,68,0.00,,,0.00,weatherlink.com 1.10,2013-12-29 00:11:00,
2013-12-28 18:26:00,44.1,34.0,30.07,SSE,154,0.0,3.0,68,0.00,,,0.00,weatherlink.com 1.10,2013-12-29 00:26:00,
2013-12-28 18:41:00,43.8,34.0,30.05,SSE,154,1.0,1.0,69,0.00,,,0.00,weatherlink.com 1.10,2013-12-29 00:41:00,
2013-12-28 18:56:00,43.1,34.0,30.05,SSE,154,0.0,1.0,70,0.00,,,0.00,weatherlink.com 1.10,2013-12-29 00:56:00,
2013-12-28 19:11:00,42.7,34.0,30.05,SSE,154,0.0,0.0,71,0.00,,,0.00,weatherlink.com 1.10,2013-12-29 01:11:00,
2013-12-28 19:26:00,42.5,34.0,30.05,SSE,154,0.0,0.0,71,0.00,,,0.00,weatherlink.com 1.10,2013-12-29 01:26:00,
2013-12-28 19:41:00,42.0,34.0,30.04,SSE,154,0.0,0.0,73,0.00,,,0.00,weatherlink.com 1.10,2013-12-29 01:41:00,
2013-12-28 19:56:00,41.8,34.0,30.04,SSE,154,0.0,0.0,73,0.00,,,0.00,weatherlink.com 1.10,2013-12-29 01:56:00,
2013-12-28 20:11:00,41.4,34.0,30.03,SSE,154,0.0,0.0,74,0.00,,,0.00,weatherlink.com 1.10,2013-12-29 02:11:00,
2013-12-28 20:26:00,41.3,34.0,30.02,SSE,154,0.0,0.0,76,0.00,,,0.00,weatherlink.com 1.10,2013-12-29 02:26:00,
2013-12-28 20:41:00,40.7,34.0,30.01,SSE,154,0.0,1.0,78,0.00,,,0.00,weatherlink.com 1.10,2013-12-29 02:41:00,
2013-12-28 20:56:00,40.6,34.0,30.02,SSE,154,1.0,2.0,77,0.00,,,0.00,weatherlink.com 1.10,2013-12-29 02:56:00,
2013-12-28 21:12:00,41.0,34.0,30.02,SSE,154,1.0,3.0,76,0.00,,,0.00,weatherlink.com 1.10,2013-12-29 03:12:00,
2013-12-28 21:27:00,41.6,34.0,30.02,SSE,154,0.0,2.0,74,0.00,,,0.00,weatherlink.com 1.10,2013-12-29 03:27:00,
2013-12-28 21:42:00,40.8,34.0,30.02,SSE,154,0.0,1.0,77,0.00,,,0.00,weatherlink.com 1.10,2013-12-29 03:42:00,
2013-12-28 21:57:00,41.2,34.0,30.02,SSE,154,3.0,3.0,75,0.00,,,0.00,weatherlink.com 1.10,2013-12-29 03:57:00,
2013-12-28 22:12:00,41.8,34.0,30.01,SSE,154,4.0,4.0,74,0.00,,,0.00,weatherlink.com 1.10,2013-12-29 04:12:00,
2013-12-28 22:27:00,42.1,34.0,30.01,SSE,154,4.0,6.0,74,0.00,,,0.00,weatherlink.com 1.10,2013-12-29 04:27:00,
2013-12-28 22:42:00,42.6,35.0,29.99,SSE,155,6.0,8.0,74,0.00,,,0.00,weatherlink.com 1.10,2013-12-29 04:42:00,
2013-12-28 22:57:00,42.7,35.0,30.00,SSE,165,3.0,5.0,74,0.00,,,0.00,weatherlink.com 1.10,2013-12-29 04:57:00,
2013-12-28 23:12:00,42.8,35.0,29.99,SSE,165,3.0,4.0,74,0.00,,,0.00,weatherlink.com 1.10,2013-12-29 05:12:00,
2013-12-28 23:27:00,42.8,35.0,29.98,SSE,165,4.0,5.0,74,0.00,,,0.00,weatherlink.com 1.10,2013-12-29 05:27:00,
2013-12-28 23:42:00,42.7,35.0,29.96,SSE,165,0.0,3.0,75,0.00,,,0.00,weatherlink.com 1.10,2013-12-29 05:42:00,
2013-12-28 23:57:00,42.1,36.0,29.96,SSE,165,0.0,0.0,78,0.00,,,0.00,weatherlink.com 1.10,2013-12-29 05:57:00,